Weather History for Ohio State University, OH

Change the Weather History Date:

Friday, April 5, 2013

  Actual Average Record
Temperature  
Mean Temperature 44 °F -  
Max Temperature 55 °F 58 °F 75 °F (2005)
Min Temperature 34 °F 37 °F 24 °F (2004)
Degree Days  
Heating Degree Days 20    
Moisture  
Dew Point 23 °F    
Average Humidity 45    
Maximum Humidity 59    
Minimum Humidity 31    
Precipitation  
Precipitation 0.00 in - - ()
Sea Level Pressure  
Sea Level Pressure 30.05 in    
Wind  
Wind Speed 6 mph (NNW)    
Max Wind Speed 17 mph    
Max Gust Speed 24 mph    
Visibility 10 miles    
Events      
Averages and records for this station are not official NWS values.
T = Trace of Precipitation, MM = Missing Value Source: NWS Daily Summary

Daily Weather History Graph

Daily Weather History Graph

Search for Another Location

Airport:

Trip Planner

Search our weather history database for the weather conditions in past years. The results will help you decide how hot, cold, wet, or windy it might be!

Date:

Astronomy

Apr. 05, 2013 Rise Set
Actual Time 7:09 AM EDT 8:00 PM EDT
Civil Twilight 6:41 AM EDT 8:28 PM EDT
Nautical Twilight 6:09 AM EDT 9:01 PM EDT
Astronomical Twilight 5:35 AM EDT 9:35 PM EDT
Moon 4:16 AM EDT (4/5) 3:23 PM EDT (4/5)
Length of Visible Light 13h 46m
Length of Day
12h 51m
Waning Crescent, 24% of the Moon is Illuminated
Apr 5
Waning Crescent
Apr 10
New
Apr 18
First Quarter
Apr 25
Full
May 2
Last Quarter

Hourly Weather History & Observations

Time (EDT) Temp. Windchill Dew Point Humidity Pressure Visibility Wind Dir Wind Speed Gust Speed Precip Events Conditions
12:53 AM 37.9 °F 35.5 °F 19.9 °F 48% 29.98 in 10.0 mi SW 3.5 mph - N/A   Clear
1:53 AM 37.9 °F 35.5 °F 21.0 °F 51% 29.98 in 10.0 mi West 3.5 mph - N/A   Clear
2:53 AM 36.0 °F 32.1 °F 21.9 °F 57% 29.97 in 10.0 mi WNW 4.6 mph - N/A   Clear
3:53 AM 35.1 °F 31.0 °F 21.9 °F 59% 29.97 in 10.0 mi West 4.6 mph - N/A   Clear
4:53 AM 35.1 °F 31.0 °F 21.0 °F 57% 29.98 in 10.0 mi West 4.6 mph - N/A   Clear
5:53 AM 34.0 °F 28.8 °F 21.0 °F 59% 29.98 in 10.0 mi West 5.8 mph - N/A   Clear
6:53 AM 34.0 °F - 19.9 °F 56% 29.99 in 10.0 mi Calm Calm - N/A   Clear
7:53 AM 35.1 °F - 21.0 °F 57% 30.02 in 10.0 mi Calm Calm - N/A   Clear
8:53 AM 39.9 °F - 23.0 °F 51% 30.04 in 10.0 mi Calm Calm - N/A   Clear
9:53 AM 46.9 °F - 23.0 °F 39% 30.04 in 10.0 mi North 6.9 mph - N/A   Clear
10:53 AM 50.0 °F - 21.9 °F 33% 30.04 in 10.0 mi North 5.8 mph - N/A   Clear
11:53 AM 53.1 °F - 24.1 °F 32% 30.05 in 10.0 mi North 9.2 mph - N/A   Clear
12:53 PM 55.0 °F - 30.0 °F 38% 30.05 in 10.0 mi North 11.5 mph - N/A   Scattered Clouds
1:53 PM 55.0 °F - 30.9 °F 40% 30.05 in 10.0 mi NNW 12.7 mph 24.2 mph N/A   Partly Cloudy
2:53 PM 55.9 °F - 30.0 °F 37% 30.04 in 10.0 mi North 17.3 mph 21.9 mph N/A   Partly Cloudy
3:53 PM 55.0 °F - 25.0 °F 31% 30.05 in 10.0 mi North 12.7 mph 23.0 mph N/A   Clear
4:53 PM 55.0 °F - 25.0 °F 31% 30.05 in 10.0 mi NNW 16.1 mph 20.7 mph N/A   Clear
5:53 PM 53.1 °F - 24.1 °F 32% 30.06 in 10.0 mi North 10.4 mph 18.4 mph N/A   Clear
6:53 PM 51.1 °F - 24.1 °F 35% 30.08 in 10.0 mi North 9.2 mph - N/A   Clear
7:53 PM 46.0 °F 42.5 °F 21.9 °F 39% 30.10 in 10.0 mi NNE 6.9 mph - N/A   Clear
8:53 PM 44.1 °F 42.5 °F 19.9 °F 38% 30.13 in 10.0 mi NE 3.5 mph - N/A   Clear
9:53 PM 41.0 °F 33.9 °F 21.9 °F 47% 30.16 in 10.0 mi NE 12.7 mph - N/A   Clear
10:53 PM 39.0 °F 34.0 °F 21.0 °F 49% 30.17 in 10.0 mi NE 6.9 mph - N/A   Clear
11:53 PM 37.0 °F 31.6 °F 21.0 °F 52% 30.18 in 10.0 mi ENE 6.9 mph - N/A   Clear